Regional Weather Roundup
Issued by NWS

Home | Current Version | Previous Version | Graphics & Text | Print | Product List | Glossary On
Versions: 1 2 3 4 5 6 7 8 9 10 11 12 13 14 15 16 17 18 19 20 21 22 23 24 25 26 27 28 29 30 31 32 33 34 35 36 37 38 39 40 41 42 43 44 45 46 47 48 49 50
541
ASUS43 KLSX 301907
RWRMO

WEATHER SUMMARY FOR MISSOURI
NATIONAL WEATHER SERVICE SPRINGFIELD MO
200 PM CDT SAT APR 30 2016

NOTE: "FAIR" INDICATES FEW OR NO CLOUDS BELOW 12,000 FEET WITH NO
       SIGNIFICANT WEATHER AND/OR OBSTRUCTIONS TO VISIBILITY.
       CURRENT SKY AND/OR WEATHER CONDITIONS ARE NOT AVAILABLE FOR
       CHILLICOTHE AND FARMINGTON.

MOZ001>031-035>038-043-044-053-054-302000-
...NORTHERN AND WESTERN MISSOURI...

CITY           SKY/WX    TMP DP  RH WIND       PRES   REMARKS
KANSAS CTY INT MOSUNNY   64  54  69 SW18G24   29.71S
KANSAS C DTWN  PTSUNNY   67  52  58 SW13G23   29.71R
LEE`S SUMMIT   MOSUNNY   66  54  65 SW18G25   29.72R
ST JOSEPH      CLOUDY    62  54  74 SW17G23   29.70R
CHILLICOTHE      N/A     69  62  78 VRB3      29.68S
KIRKSVILLE     CLOUDY    60  59  96 E3        29.70S

$$
MOZ066>068-077>081-088>096-101>105-302000-
...SOUTHWEST MISSOURI...

CITY           SKY/WX    TMP DP  RH WIND       PRES   REMARKS
SPRINGFIELD    PTSUNNY   73  60  63 W16       29.72S
JOPLIN         PTSUNNY   69  59  70 SW16G24   29.75F
BRANSON        PTSUNNY   73  61  64 W12       29.74F

$$
MOZ032>034-039>042-045>050-055>058-069>072-302000-
...CENTRAL MISSOURI...

CITY           SKY/WX    TMP DP  RH WIND       PRES   REMARKS
COLUMBIA       MOSUNNY   73  62  68 SW14G21   29.69S
JEFFERSON CITY MOSUNNY   74  60  61 SW12G18   29.68F
ROLLA          CLOUDY    71  64  78 S13       29.71S
SEDALIA        MOSUNNY   73  56  54 SW21G32   29.69S
WHITEMAN AFB   MOSUNNY   71  57  60 W23G30    29.67S
WARRENSBURG    MOSUNNY   68  55  64 SW16G25   29.70R
OSAGE BEACH    MOSUNNY   73  57  56 SW13      29.70S

$$
MOZ051-052-059>065-302000-
...EAST CENTRAL MISSOURI...

CITY           SKY/WX    TMP DP  RH WIND       PRES   REMARKS
ST LOUIS INTL  CLOUDY    68  61  78 S9        29.74F
SPIRIT OF STL  CLOUDY    70  64  83 S9        29.72S
ST CHARLES     CLOUDY    67  63  87 S8        29.73S

$$
MOZ072>076-082>087-097>100-106>115-302000-
...SOUTH CENTRAL AND SOUTHEAST MISSOURI...

CITY           SKY/WX    TMP DP  RH WIND       PRES   REMARKS
CAPE GIRARDEAU CLOUDY    71  62  73 S10       29.79F
FARMINGTON     CLOUDY    68  62  81 S8        29.77F
POPLAR BLUFF   CLOUDY    69  61  75 S8        29.78F
WEST PLAINS    CLOUDY    70  60  70 VRB7      29.77F

$$



USA.gov is the U.S. government's official web portal to all federal, state and local government web resources and services.